This is the latest recevied weather packets stored in our database for station/object EDDV. If no packets are shown the sender has not sent any weather packets the latest 1 day(s).
| Time | Temp. | Humidity | Pressure | Rain* | Wind** | Luminosity | Snow |
|---|---|---|---|---|---|---|---|
| 1778026202 | 10° C | 95% | 1007 hPa | 0 mm | 1.79 m/s, 30° | - | - |
| 1778022601 | 10.56° C | 90% | 1008 hPa | 0 mm | 2.24 m/s, 40° | - | - |
| 1778019001 | 10.56° C | 90% | 1008 hPa | 0 mm | 2.24 m/s, 40° | - | - |
| 1778015402 | 10.56° C | 95% | 1008 hPa | 0 mm | 2.68 m/s, 30° | - | - |
| 1778011801 | 10.56° C | 95% | 1008 hPa | 0 mm | 3.13 m/s, 50° | - | - |
| 1778008278 | 11.67° C | 90% | 1008 hPa | 0 mm | 2.24 m/s, 40° | - | - |
| 1778004602 | 11.67° C | 95% | 1008 hPa | 0 mm | 2.24 m/s, 50° | - | - |
| 1778001002 | 11.67° C | 95% | 1009 hPa | 0 mm | 1.79 m/s, 50° | - | - |
| 1777997401 | 11.67° C | 95% | 1009 hPa | 0 mm | 1.79 m/s, 20° | - | - |
| 1777993803 | 12.78° C | 90% | 1009 hPa | 0 mm | 1.79 m/s, 50° | - | - |
| 1777990202 | 11.67° C | 95% | 1009 hPa | 0 mm | 2.24 m/s, 40° | - | - |
| 1777986602 | 11.67° C | 95% | 1010 hPa | 0 mm | 1.79 m/s, 10° | - | - |
| 1777983001 | 11.67° C | 95% | 1010 hPa | 0 mm | 2.24 m/s, 20° | - | - |
| 1777979402 | 11.67° C | 95% | 1010 hPa | 0 mm | 1.79 m/s, 10° | - | - |
| 1777975802 | 11.67° C | 95% | 1010 hPa | 0 mm | 1.34 m/s, 360° | - | - |
| 1777972201 | 10.56° C | 10% | 1010 hPa | 0 mm | 2.24 m/s, 330° | - | - |
| 1777968602 | 10.56° C | 10% | 1010 hPa | 0 mm | 1.79 m/s, 320° | - | - |
| 1777965002 | 10.56° C | 10% | 1010 hPa | 0 mm | 1.34 m/s, 340° | - | - |
| 1777961401 | 11.67° C | 10% | 1010 hPa | 0 mm | 2.24 m/s, 330° | - | - |
| 1777957801 | 12.78° C | 10% | 1010 hPa | 0 mm | 1.34 m/s, 330° | - | - |
| 1777954201 | 12.78° C | 10% | 1010 hPa | 0 mm | 0 m/s | - | - |
| 1777950602 | 12.78° C | 10% | 1010 hPa | 0 mm | 0.45 m/s, 350° | - | - |
| 1777947002 | 12.78° C | 10% | 1011 hPa | 0 mm | 0 m/s | - | - |
| 1777943402 | 12.78° C | 10% | 1011 hPa | 0 mm | 0 m/s | - | - |
* Rain latest 24 hours (hover to see other rain measurements)
** Current wind speed in m/s (hover to see current wind gust speed)